Flag for United Kingdom Weather past 2 weeks in Kingston upon Hull, England, United Kingdom

Now
45 °F

Passing clouds.


Feels Like: 39 °F
Forecast: 39 / 53 °F
Wind: 12 mph from Northeast

Location: Humberside

Current Time: Apr 18, 2015 at 10:36:57 PM

Latest Report: Apr 18, 2015 at 9:50 PM


Visibility: N/A

Pressure: 30.45 "Hg

Humidity: 71%

Dew point: 36 °F

Location of Kingston upon HullLocation

Historic Weather in Kingston upon Hull — Graph

°F

Kingston upon Hull temperature yesterday

Maximum temperature yesterday: 54 °F (at 10:50 AM)
Minimum temperature yesterday: 39 °F (at 11:50 PM)
Average temperature yesterday: 48 °F

Past Weeks' High & Low Weather Summary

 TemperatureHumidityPressure
High68 °F (Apr 10, 4:20 PM)100% (Apr 3, 10:50 PM)30.60 "Hg (Apr 3, 10:50 PM)
Low34 °F (Apr 13, 6:20 AM)32% (Apr 11, 2:50 PM)29.74 "Hg (Apr 11, 4:20 AM)
Average50 °F76%30.24 "Hg
* Reported Apr 3 9:20 PM — Apr 18 9:20 PM, Kingston upon Hull, Weather by CustomWeather, © 2015

Note: Actual official high and low records may vary slightly from our data, if they occured in-between our weather recording intervals... More about our weather records

Advertising

Kingston upon Hull weather history for previous 24 hours

 ConditionsComfort  
Time TempWeatherWind HumidityBarometerVisibility
9:20 PM
Sat, Apr 18
45 °FPassing clouds.9 mph71%30.45 "HgN/A
8:50 PM45 °FPartly sunny.12 mph71%30.45 "HgN/A
8:20 PM45 °FPartly sunny.13 mph71%30.45 "HgN/A
7:50 PM45 °FScattered clouds.13 mph71%30.45 "HgN/A
7:20 PM45 °FScattered clouds.14 mph71%30.42 "HgN/A
6:50 PM46 °FScattered clouds.15 mph66%30.42 "HgN/A
6:20 PM48 °FScattered clouds.15 mph66%30.42 "HgN/A
5:50 PM50 °FScattered clouds.14 mph62%30.42 "HgN/A
5:20 PM48 °FScattered clouds.13 mph66%30.45 "HgN/A
4:50 PM50 °FScattered clouds.14 mph67%30.45 "HgN/A
4:20 PM52 °FScattered clouds.15 mph67%30.45 "HgN/A
3:50 PM52 °FScattered clouds.13 mph62%30.45 "HgN/A
3:20 PM50 °FScattered clouds.13 mph67%30.45 "HgN/A
2:50 PM50 °FScattered clouds.13 mph67%30.48 "HgN/A
2:20 PM52 °FScattered clouds.13 mph62%30.48 "HgN/A
1:50 PM52 °FScattered clouds.13 mph62%30.48 "HgN/A
1:20 PM52 °FScattered clouds.13 mph62%30.48 "HgN/A
12:50 PM52 °FScattered clouds.12 mph62%30.48 "HgN/A
12:20 PM52 °FScattered clouds.14 mph62%30.48 "HgN/A
11:50 AM52 °FScattered clouds.12 mph62%30.48 "HgN/A
11:20 AM52 °FScattered clouds.12 mph67%30.48 "HgN/A
10:50 AM50 °FScattered clouds.13 mph71%30.48 "HgN/A
10:20 AM50 °FScattered clouds.13 mph71%30.48 "HgN/A
9:50 AM48 °FScattered clouds.10 mph71%30.48 "HgN/A
9:20 AM46 °FScattered clouds.10 mph76%30.48 "HgN/A
8:50 AM46 °FScattered clouds.10 mph76%30.48 "HgN/A
8:20 AM46 °FScattered clouds.9 mph76%30.48 "HgN/A
7:50 AM45 °FScattered clouds.9 mph81%30.45 "HgN/A
7:20 AM45 °FScattered clouds.9 mph81%30.45 "HgN/A
6:50 AM45 °FPassing clouds.8 mph81%30.45 "HgN/A
6:20 AM43 °FPassing clouds.6 mph87%30.45 "HgN/A
5:50 AM43 °FPassing clouds.6 mph87%30.42 "HgN/A
5:20 AM43 °FMostly cloudy.6 mph87%30.42 "HgN/A
4:50 AM45 °FOvercast.8 mph81%30.42 "HgN/A
4:20 AM45 °FOvercast.7 mph81%30.42 "HgN/A
3:50 AM45 °FOvercast.6 mph81%30.42 "HgN/A
3:20 AM45 °FOvercast.8 mph81%30.42 "HgN/A
2:50 AM45 °FMostly cloudy.8 mph81%30.42 "HgN/A
2:20 AM43 °FPassing clouds.7 mph87%30.42 "HgN/A
1:50 AM41 °FPartly cloudy.8 mph93%30.42 "HgN/A
1:20 AM41 °FPassing clouds.5 mph87%30.42 "HgN/A
12:50 AM41 °FQuite cool.8 mph87%30.42 "HgN/A
12:20 AM41 °FQuite cool.9 mph87%30.39 "HgN/A
11:50 PM
Fri, Apr 17
39 °FChilly.7 mph93%30.39 "HgN/A
11:20 PM41 °FQuite cool.7 mph87%30.39 "HgN/A
10:50 PM41 °FQuite cool.8 mph87%30.36 "HgN/A
10:20 PM43 °FPartly cloudy.7 mph87%30.36 "HgN/A
Weather by CustomWeather, © 2015

See weather overviewHow to use our weather pages